[[{"header":{"parameterUnit":"m.s-1","parameterCategory":1,"la1":30.2991,"la2":30.254,"lo1":-89.0895,"lo2":-89.0444,"dx":0.0017,"dy":0.0017,"nx":28,"ny":28,"refTime":"2022-11-07T09:00:00:Z","depth":0,"parameterNumber":2,"parameterNumberName":"U-component_of_WINDS"},"data":[0,0,0,0,0,0,0,0,0,0,0,0,0,0,0,0,0,0,0,0,0,0,0,0,0,0,0,0,0,0,0,0,0,0,0,0,0,0,0,0,0,0,0,0,0,0,0,0,0,0,0,0,0,0,0,0,0,0,-2.5952,-2.5951,0,-2.5932,-2.5932,-2.5932,-2.5901,-2.5901,-2.59,-2.5899,-2.5879,-2.5879,-2.5879,0,0,0,0,0,0,0,0,0,0,0,0,0,-2.5963,-2.5963,-2.5952,-2.5951,-2.5951,-2.5932,-2.5932,-2.5932,-2.5901,-2.5901,-2.59,-2.5899,-2.5879,-2.5879,-2.5879,0,0,0,0,0,0,0,0,0,0,0,0,0,-2.5952,-2.5963,-2.5952,-2.5934,-2.5932,-2.5932,-2.5932,-2.5932,-2.5901,-2.5901,-2.59,-2.5899,-2.5879,-2.5879,-2.5879,-2.5896,0,0,-2.5879,-2.5879,0,0,0,0,0,0,0,0,-2.5953,-2.5952,-2.5936,-2.5935,-2.5933,-2.5918,-2.5929,-2.592,-2.5902,-2.5913,-2.5899,-2.5898,-2.5893,-2.5892,-2.589,-2.5895,-2.5894,-2.5879,-2.5879,-2.5879,-2.5879,0,0,0,0,0,0,0,-2.5954,-2.5953,-2.5944,-2.5936,-2.5934,-2.5927,-2.5924,-2.5927,-2.5908,-2.5912,-2.591,-2.5908,-2.5892,-2.589,-2.5889,-2.5894,-2.5879,-2.5879,-2.5879,-2.5879,-2.5915,-2.5916,0,0,0,0,0,0,-2.5957,-2.5953,-2.5944,-2.5943,-2.5941,-2.5927,-2.5925,-2.5924,-2.5908,-2.5904,-2.5908,-2.5906,-2.5891,-2.5889,-2.5888,-2.5909,-2.5879,-2.5879,-2.5879,-2.5914,-2.5915,-2.5916,0,0,0,0,0,0,-2.5958,-2.5957,-2.5945,-2.5948,-2.5946,-2.5928,-2.5927,-2.5924,-2.5922,-2.5905,-2.5902,-2.591,-2.589,-2.5888,-2.5895,-2.5908,-2.5879,-2.5879,-2.5913,-2.5915,-2.5916,-2.595,0,0,0,0,0,0,-2.5958,-2.5957,-2.5963,-2.5948,-2.5946,-2.5952,-2.5928,-2.5924,-2.5922,-2.5919,-2.5906,-2.5903,-2.5889,-2.5895,-2.5895,-2.5908,-2.5879,-2.5912,-2.5914,-2.5915,-2.5948,-2.5952,-2.5957,0,0,0,0,0,-2.5958,-2.5972,-2.5963,-2.5962,-2.5952,-2.5953,-2.5951,-2.5935,-2.5923,-2.5929,-2.5919,-2.5903,-2.5907,-2.5896,-2.5896,-2.5908,-2.5911,-2.5913,-2.5915,-2.5946,-2.5952,-2.5956,0,0,0,0,0,0,-2.5987,-2.597,-2.5959,-2.5969,-2.5963,-2.5947,-2.5954,-2.5941,-2.5938,-2.5936,-2.5916,-2.5913,-2.5923,-2.5916,-2.5905,-2.5926,-2.5907,-2.5909,-2.593,-2.5935,-2.594,-2.5942,-2.5879,0,0,0,0,0,-2.5995,-2.5996,-2.5981,-2.599,-2.5988,-2.5972,-2.5971,-2.596,-2.5953,-2.595,-2.594,-2.5933,-2.5933,-2.5934,-2.5932,-2.5946,-2.5944,-2.5955,-2.5959,-2.5963,-2.5966,-2.5976,-2.5981,-2.5924,-2.5924,-2.5924,0,0,-2.601,-2.6001,-2.6003,-2.5996,-2.599,-2.5993,-2.597,-2.5973,-2.5976,-2.595,-2.5957,-2.5949,-2.5941,-2.5953,-2.5957,-2.5947,-2.5981,-2.5966,-2.5969,-2.597,-2.5979,-2.5984,-2.5989,-2.5925,-2.5925,-2.5925,0,0,-2.604,-2.6032,-2.6041,-2.6036,-2.6028,-2.6017,-2.602,-2.6007,-2.6002,-2.6008,-2.599,-2.5993,-2.5992,-2.5988,-2.5986,-2.6018,-2.6004,-2.6018,-2.6041,-2.6052,-2.6056,-2.606,-2.6074,-2.6079,-2.602,-2.602,-2.602,0,-2.606,-2.6064,-2.6047,-2.6052,-2.6051,-2.6029,-2.6039,-2.6035,-2.6026,-2.6027,-2.6015,-2.6017,-2.6009,-2.6021,-2.6029,-2.6027,-2.6031,-2.602,-2.6057,-2.6061,-2.6064,-2.6077,-2.6082,-2.6022,-2.6022,-2.6022,-2.6021,0,-2.609,-2.6093,-2.6101,-2.6095,-2.6095,-2.6102,-2.6088,-2.6089,-2.6079,-2.607,-2.6078,-2.6069,-2.6067,-2.6069,-2.6057,-2.608,-2.6074,-2.606,-2.6041,-2.6072,-2.6084,-2.6089,-2.6025,-2.6024,-2.6023,-2.6023,0,0,-2.6136,-2.6123,-2.6127,-2.6125,-2.6116,-2.6118,-2.6126,-2.6125,-2.6128,-2.6123,-2.613,-2.6132,-2.612,-2.6118,-2.6106,-2.6114,-2.6144,-2.61,-2.6099,-2.6111,-2.6172,-2.6184,-2.619,-2.6135,-2.6135,-2.6136,-2.6173,0,-2.6166,-2.6178,-2.6165,-2.618,-2.6185,-2.6165,-2.6172,-2.6168,-2.6161,-2.6164,-2.6155,-2.6158,-2.614,-2.614,-2.6147,-2.6139,-2.6156,-2.6136,-2.6143,-2.6143,-2.6148,-2.6196,-2.6208,-2.6243,-2.6178,-2.6178,-2.6179,0,-2.6201,-2.6201,-2.6217,-2.621,-2.6211,-2.6218,-2.6218,-2.622,-2.6216,-2.621,-2.6209,-2.6196,-2.6204,-2.6185,-2.6197,-2.6184,-2.6186,-2.6183,-2.6184,-2.6185,-2.6164,-2.6201,-2.6254,-2.626,-2.6186,-2.6185,-2.6185,0,-2.6237,-2.624,-2.6251,-2.625,-2.6241,-2.6247,-2.6243,-2.6238,-2.6239,-2.6239,-2.624,-2.624,-2.6241,-2.6242,-2.623,-2.6217,-2.6246,-2.6224,-2.6243,-2.6243,-2.625,-2.625,-2.6307,-2.6249,-2.6248,-2.6248,-2.6248,0,-2.6272,-2.6284,-2.6267,-2.6274,-2.6288,-2.6272,-2.6286,-2.628,-2.6277,-2.6283,-2.6266,-2.6273,-2.6255,-2.6261,-2.6251,-2.6265,-2.6264,-2.6261,-2.6259,-2.6264,-2.6265,-2.6266,-2.6265,-2.625,-2.6249,-2.6249,-2.6249,0,-2.6314,-2.6303,-2.6315,-2.6306,-2.6305,-2.6315,-2.6308,-2.6315,-2.6307,-2.6316,-2.6317,-2.6306,-2.6311,-2.6299,-2.6302,-2.6296,-2.6317,-2.6309,-2.6319,-2.6317,-2.6337,-2.6337,-2.6399,-2.6407,-2.6341,-2.6342,-2.6342,0,-2.6338,-2.6347,-2.634,-2.6344,-2.6342,-2.6348,-2.635,-2.6336,-2.6339,-2.6337,-2.6344,-2.6349,-2.6352,-2.6362,-2.6354,-2.6358,-2.6352,-2.6373,-2.6352,-2.6358,-2.6356,-2.6356,-2.6358,-2.6378,-2.6379,-2.638,-2.638,0,-2.6383,-2.6378,-2.6382,-2.6385,-2.6388,-2.639,-2.639,-2.6394,-2.6379,-2.6384,-2.639,-2.6393,-2.6398,-2.6404,-2.6406,-2.6403,-2.639,-2.6387,-2.6392,-2.6398,-2.6404,-2.6404,-2.6333,-2.6386,-2.6385,-2.6385,-2.6384,-2.6384,-2.6418,-2.6426,-2.6424,-2.643,-2.6429,-2.6431,-2.6438,-2.6432,-2.6437,-2.6441,-2.6433,-2.6442,-2.644,-2.6442,-2.6441,-2.6449,-2.6439,-2.6445,-2.6447,-2.645,-2.6455,-2.6402,-2.6449,-2.6448,-2.6448,-2.6448,-2.6448,0,-2.6464,-2.6463,-2.6468,-2.647,-2.6476,-2.6463,-2.6464,-2.6469,-2.6478,-2.6477,-2.6482,-2.6491,-2.6497,-2.6491,-2.6496,-2.6504,-2.6498,-2.6506,-2.6506,-2.6506,-2.6461,-2.6458,-2.651,-2.651,-2.651,-2.651,-2.651,-2.651,-2.6489,-2.6504,-2.6499,-2.6514,-2.6512,-2.6522,-2.6524,-2.6526,-2.6526,-2.6537,-2.6543,-2.6539,-2.6537,-2.6542,-2.6548,-2.6546,-2.655,-2.6561,-2.6557,-2.6515,-2.6509,-2.6503,-2.65,-2.6561,-2.6561,-2.6602,-2.6602,-2.6603]},{"header":{"parameterUnit":"m.s-1","parameterCategory":1,"la1":30.2991,"la2":30.254,"lo1":-89.0895,"lo2":-89.0444,"dx":0.0017,"dy":0.0017,"nx":28,"ny":28,"refTime":"2022-11-07T09:00:00:Z","depth":0,"parameterNumber":3,"parameterNumberName":"V-component_of_WINDS"},"data":[0,0,0,0,0,0,0,0,0,0,0,0,0,0,0,0,0,0,0,0,0,0,0,0,0,0,0,0,0,0,0,0,0,0,0,0,0,0,0,0,0,0,0,0,0,0,0,0,0,0,0,0,0,0,0,0,0,0,-2.1869,-2.1869,0,-2.1873,-2.1873,-2.1873,-2.183,-2.1828,-2.1827,-2.1826,-2.1829,-2.183,-2.1831,0,0,0,0,0,0,0,0,0,0,0,0,0,-2.1822,-2.1824,-2.1869,-2.1869,-2.1869,-2.1873,-2.1873,-2.1873,-2.183,-2.1828,-2.1827,-2.1825,-2.1828,-2.183,-2.1831,0,0,0,0,0,0,0,0,0,0,0,0,0,-2.1836,-2.1824,-2.1869,-2.1848,-2.1846,-2.1873,-2.1873,-2.1873,-2.183,-2.1828,-2.1826,-2.1825,-2.1828,-2.183,-2.1831,-2.1878,0,0,-2.1837,-2.1837,0,0,0,0,0,0,0,0,-2.1835,-2.1838,-2.1851,-2.1849,-2.1847,-2.1849,-2.1858,-2.1875,-2.183,-2.1836,-2.1826,-2.1824,-2.1837,-2.1838,-2.1842,-2.1878,-2.1878,-2.1837,-2.1838,-2.1839,-2.1839,0,0,0,0,0,0,0,-2.1835,-2.1838,-2.187,-2.1851,-2.1849,-2.1838,-2.1838,-2.1861,-2.1846,-2.1835,-2.1832,-2.1833,-2.1835,-2.1841,-2.1842,-2.1878,-2.1837,-2.1838,-2.1839,-2.184,-2.1954,-2.1956,0,0,0,0,0,0,-2.1837,-2.1837,-2.187,-2.1871,-2.1837,-2.184,-2.184,-2.185,-2.1846,-2.1844,-2.1835,-2.1831,-2.1839,-2.184,-2.1842,-2.1897,-2.1839,-2.184,-2.1841,-2.1952,-2.1954,-2.1956,0,0,0,0,0,0,-2.1836,-2.184,-2.187,-2.1853,-2.1856,-2.1843,-2.1855,-2.1851,-2.1857,-2.1846,-2.1843,-2.1843,-2.1837,-2.1839,-2.187,-2.1897,-2.1841,-2.1843,-2.1949,-2.1952,-2.1955,-2.2008,0,0,0,0,0,0,-2.1835,-2.184,-2.1858,-2.1854,-2.1857,-2.1898,-2.1856,-2.1853,-2.186,-2.1855,-2.1853,-2.185,-2.1836,-2.1867,-2.1872,-2.1898,-2.1844,-2.1947,-2.1951,-2.1954,-2.2004,-2.2013,-2.202,0,0,0,0,0,-2.1833,-2.1872,-2.1859,-2.1863,-2.1879,-2.19,-2.1902,-2.1885,-2.1862,-2.188,-2.1873,-2.185,-2.1893,-2.1871,-2.1875,-2.1903,-2.1945,-2.195,-2.1954,-2.2001,-2.2011,-2.202,0,0,0,0,0,0,-2.1879,-2.1871,-2.1857,-2.1895,-2.1899,-2.1893,-2.1915,-2.1896,-2.1906,-2.1901,-2.1879,-2.1879,-2.1913,-2.1911,-2.1886,-2.1948,-2.1915,-2.1921,-2.1949,-2.1959,-2.1967,-2.1967,-2.1846,0,0,0,0,0,-2.1894,-2.1912,-2.1904,-2.1939,-2.1941,-2.1928,-2.1936,-2.1923,-2.1925,-2.1926,-2.1922,-2.1925,-2.1939,-2.1948,-2.1961,-2.2003,-2.2002,-2.2024,-2.2032,-2.2039,-2.2044,-2.2068,-2.2078,-2.1971,-2.1971,-2.1971,0,0,-2.1924,-2.1922,-2.1935,-2.1948,-2.1949,-2.1968,-2.1929,-2.1951,-2.1965,-2.1929,-2.1958,-2.1955,-2.1957,-2.1994,-2.201,-2.1993,-2.2074,-2.2045,-2.205,-2.2052,-2.2073,-2.2084,-2.2093,-2.1974,-2.1973,-2.1973,0,0,-2.199,-2.199,-2.2019,-2.2022,-2.2024,-2.2015,-2.2022,-2.2019,-2.2016,-2.2044,-2.2019,-2.2035,-2.2059,-2.2062,-2.2066,-2.2134,-2.2114,-2.2138,-2.218,-2.2204,-2.2212,-2.2219,-2.2245,-2.2254,-2.2143,-2.2143,-2.2144,0,-2.2027,-2.2055,-2.2037,-2.2061,-2.2068,-2.2037,-2.2067,-2.207,-2.2076,-2.2082,-2.2062,-2.2093,-2.2092,-2.213,-2.2147,-2.2151,-2.2159,-2.2139,-2.2212,-2.222,-2.2226,-2.225,-2.226,-2.2147,-2.2146,-2.2146,-2.2146,0,-2.2102,-2.2122,-2.2146,-2.2154,-2.2163,-2.219,-2.2175,-2.2187,-2.2173,-2.2166,-2.2196,-2.2193,-2.2205,-2.2213,-2.2199,-2.2249,-2.2238,-2.2216,-2.2182,-2.224,-2.2262,-2.2271,-2.2151,-2.215,-2.2149,-2.2148,0,0,-2.2197,-2.2195,-2.2204,-2.2208,-2.2208,-2.2223,-2.2249,-2.2261,-2.2272,-2.2277,-2.2298,-2.232,-2.23,-2.2305,-2.2291,-2.2311,-2.2366,-2.2287,-2.2286,-2.2303,-2.2423,-2.2441,-2.2452,-2.2353,-2.2354,-2.2356,-2.2423,0,-2.2262,-2.2306,-2.2291,-2.2336,-2.2355,-2.2326,-2.2348,-2.2351,-2.2345,-2.236,-2.2353,-2.2369,-2.2341,-2.2344,-2.2362,-2.2356,-2.2391,-2.2351,-2.2373,-2.2374,-2.2375,-2.2463,-2.2482,-2.2546,-2.2432,-2.2433,-2.2434,0,-2.2344,-2.2354,-2.2401,-2.24,-2.2407,-2.2428,-2.2438,-2.2452,-2.2455,-2.2449,-2.2456,-2.2438,-2.2462,-2.2428,-2.2462,-2.2436,-2.2443,-2.2442,-2.2444,-2.2446,-2.2408,-2.2469,-2.2566,-2.2576,-2.2447,-2.2446,-2.2445,0,-2.241,-2.2435,-2.2467,-2.2471,-2.247,-2.2485,-2.2485,-2.2486,-2.2495,-2.2503,-2.2509,-2.252,-2.2527,-2.2536,-2.2521,-2.2498,-2.2558,-2.2522,-2.2555,-2.2555,-2.257,-2.2569,-2.267,-2.2573,-2.2573,-2.2572,-2.2572,0,-2.2485,-2.2516,-2.2497,-2.2517,-2.255,-2.2532,-2.2565,-2.2562,-2.2563,-2.2582,-2.2557,-2.2575,-2.2554,-2.257,-2.2558,-2.2589,-2.2592,-2.2588,-2.2585,-2.2591,-2.2592,-2.2597,-2.2593,-2.2575,-2.2574,-2.2574,-2.2573,0,-2.2565,-2.2554,-2.2587,-2.2584,-2.2584,-2.2609,-2.2605,-2.2623,-2.2616,-2.264,-2.2644,-2.2632,-2.265,-2.2636,-2.2653,-2.2645,-2.2686,-2.2676,-2.2686,-2.2684,-2.2717,-2.2715,-2.2826,-2.284,-2.2733,-2.2734,-2.2734,0,-2.2615,-2.2638,-2.2637,-2.2648,-2.265,-2.2668,-2.2678,-2.266,-2.267,-2.2676,-2.2693,-2.2709,-2.2721,-2.275,-2.2742,-2.2755,-2.2746,-2.2784,-2.2748,-2.2754,-2.2748,-2.2748,-2.2751,-2.2792,-2.2793,-2.2794,-2.2795,0,-2.2704,-2.2698,-2.2712,-2.2725,-2.2737,-2.2746,-2.2753,-2.2764,-2.2746,-2.2759,-2.2777,-2.2786,-2.2804,-2.282,-2.283,-2.283,-2.281,-2.2806,-2.2815,-2.2822,-2.2828,-2.2827,-2.2708,-2.2804,-2.2803,-2.2803,-2.2802,-2.2802,-2.2771,-2.2791,-2.2794,-2.2811,-2.2815,-2.2822,-2.284,-2.2835,-2.285,-2.2864,-2.2852,-2.2874,-2.2876,-2.2889,-2.2891,-2.2908,-2.2892,-2.2904,-2.2907,-2.291,-2.2916,-2.2824,-2.2909,-2.2909,-2.2909,-2.2908,-2.2908,0,-2.2861,-2.2861,-2.2877,-2.2889,-2.2903,-2.2883,-2.289,-2.2903,-2.2923,-2.2927,-2.2939,-2.2961,-2.2976,-2.297,-2.2984,-2.2999,-2.299,-2.3003,-2.3002,-2.3003,-2.2929,-2.2921,-2.301,-2.301,-2.301,-2.301,-2.301,-2.301,-2.2909,-2.2942,-2.2936,-2.297,-2.297,-2.2993,-2.2998,-2.3005,-2.3009,-2.3034,-2.3047,-2.3043,-2.3043,-2.3057,-2.3071,-2.3068,-2.3075,-2.3092,-2.3087,-2.3018,-2.3008,-2.2998,-2.2991,-2.3093,-2.3093,-2.3159,-2.316,-2.3161]}]]